www.pogodaiklimat.ru

Погода и климат >> Архив погоды >> Австрия >> Альбершвенде


ПОГОДА в Альбершвенде

  • Прогноз погоды в Альбершвенде
  • Монитор погоды в Альбершвенде

АРХИВ ПОГОДЫ в Альбершвенде

Время (UTC), дата Ветер
(напр.,м/с)
 
Видим.   Явления Облачность Т
(С)
Тd
(С)
f
(%)
Тe
(С)
Тes
(С)
Комфортность P
(гПа)
Po
(гПа)
Тmin
(С)
Tmax
(С)
R
(мм)
R24
(мм)
S
(см)
10 15.08 ЮЗ 2 н/о н/о +19.0 +10.1 56 +20 +20 1014.9 934.5
11 15.08 З 3 н/о в посл. час осадки н/о +19.0 +9.9 56 +20 +20 1015.3 934.8 0.0
12 15.08 штиль 0 н/о осадки н/о +15.1 +12.2 83 +15 +15 1016.9 935.3 2
13 15.08 СВ 2 н/о н/о +16.6 +13.5 82 +17 +17 1015.8 934.8 0.0
14 15.08 З 1 н/о осадки н/о +15.8 +13.3 85 +16 +16 1016.6 935.3 2
15 15.08 Ю 2 н/о в посл. час осадки н/о +14.9 +12.5 86 +15 +15 1017.1 935.5 5
16 15.08 штиль 0 н/о н/о +16.9 +13.5 80 +17 +17 1015.9 934.9 0.0
17 15.08 СЗ 1 н/о н/о +17.9 +14.8 82 +19 +19 1015.4 934.8
18 15.08 З 1 н/о осадки н/о +15.7 +13.9 89 +16 +16 1016.8 935.5 +10.6 +19.1 7
19 15.08 Ю 2 н/о в посл. час осадки н/о +15.1 +12.1 82 +15 +15 1018.4 936.7 1
20 15.08 штиль 0 н/о н/о +14.6 +12.7 88 +14 +14 1019.3 937.4 0.0
21 15.08 СВ 1 н/о {осадки} н/о +14.0 +13.1 94 +14 +14 1020.0 937.9 1
22 15.08 ЮЗ 2 н/о н/о +14.7 +11.3 80 +14 +14 1020.2 938.2
23 15.08 ЮЗ 1 н/о н/о +14.8 +11.3 80 +15 +15 1020.1 938.2 0.0
00 16.08 ЮЗ 4 н/о {осадки} н/о +15.0 +11.2 78 +14 +14 1020.0 938.1 1
01 16.08 З 3 н/о н/о +14.4 +11.1 81 +13 +13 1020.5 938.4
02 16.08 ЮЗ 2 н/о н/о +13.8 +11.1 84 +13 +13 1020.8 938.5
03 16.08 штиль 0 н/о н/о +13.2 +11.4 89 +13 +13 1020.9 938.5
04 16.08 СВ 1 н/о н/о +13.0 +11.8 92 +13 +13 1021.0 938.5 0.0
05 16.08 СВ 1 н/о осадки н/о +12.7 +11.9 95 +13 +13 1021.1 938.5 2
06 16.08 ЮЗ 1 н/о {осадки} н/о +13.2 +12.2 94 +13 +13 1020.9 938.5 +12.5 +16.8 3
07 16.08 штиль 0 н/о н/о +14.9 +12.9 88 +15 +15 1020.4 938.5
08 16.08 ЮЗ 2 н/о н/о +15.0 +11.8 81 +15 +15 1020.4 938.5
09 16.08 ЮЗ 1 н/о н/о +17.3 +10.4 64 +18 +18 1019.6 938.4 0.0
10 16.08 ЮЗ 2 н/о н/о +17.8 +10.5 62 +18 +18 1019.2 938.1
11 16.08 СЗ 1 н/о н/о +19.3 +11.3 60 +21 +21 комфорт 1018.3 937.7
12 16.08 С 1 н/о н/о +19.7 +8.5 48 +22 +22 комфорт 1017.5 937.0 0.0
13 16.08 С 1 н/о н/о +20.4 +10.0 51 +23 +23 комфорт 1016.7 936.5 0.0
14 16.08 С 1 н/о н/о +20.7 +9.8 50 +23 +23 комфорт 1016.1 936.0
15 16.08 СВ 1 н/о н/о +21.4 +10.1 48 +23 +23 комфорт 1015.1 935.3 0.0
16 16.08 СЗ 1 н/о н/о +21.6 +10.7 50 +23 +23 комфорт 1015.0 935.3
17 16.08 СЗ 1 н/о н/о +20.5 +9.9 51 +23 +23 комфорт 1014.9 934.9
18 16.08 ЮЗ 2 н/о н/о +18.6 +11.4 63 +20 +20 1015.7 935.1 +12.7 +21.7 0.0
19 16.08 ЮВ 1 н/о н/о +15.8 +10.2 69 +17 +17 1016.3 934.9
20 16.08 ЮЗ 1 н/о н/о +14.6 +10.0 74 +15 +15 1017.0 935.2
21 16.08 штиль 0 н/о н/о +13.6 +10.6 82 +13 +13 1017.3 935.3
22 16.08 ЮЗ 1 н/о н/о +13.6 +10.3 80 +14 +14 1017.2 935.2
23 16.08 Ю 1 н/о н/о +12.8 +10.6 86 +13 +13 1017.1 934.9
00 17.08 З 1 н/о н/о +12.1 +9.8 86 +12 +12 1017.1 934.6
01 17.08 ЮЗ 1 н/о н/о +11.7 +9.9 89 +11 +11 1017.2 934.6
02 17.08 Ю 1 н/о н/о +11.2 +9.7 90 +11 +11 1017.2 934.5
03 17.08 ЮЗ 1 н/о н/о +11.7 +9.8 88 +12 +12 1016.6 934.1
04 17.08 З 1 н/о н/о +11.6 +9.4 86 +11 +11 1016.8 934.2
05 17.08 СВ 1 н/о н/о +12.7 +9.9 83 +13 +13 1016.3 934.1
06 17.08 СВ 1 н/о н/о +13.7 +9.7 77 +14 +14 1016.3 934.3 +11.0 +18.8
07 17.08 штиль 0 н/о н/о +15.5 +12.1 80 +15 +15 1016.0 934.6
08 17.08 З 1 н/о н/о +16.7 +13.1 79 +18 +18 1015.5 934.5
09 17.08 СВ 1 н/о н/о +18.8 +13.6 72 +21 +21 комфорт 1014.8 934.4 0.0
10 17.08 З 1 н/о н/о +19.8 +14.7 72 +23 +23 комфорт 1014.7 934.6
11 17.08 С 1 н/о н/о +20.0 +13.9 68 +23 +23 комфорт 1014.6 934.6 0.0
12 17.08 З 1 н/о н/о +21.6 +10.8 50 +23 +23 комфорт 1014.0 934.3 0.0
13 17.08 штиль 0 н/о н/о +22.2 +11.2 50 +24 +24 комфорт 1012.9 933.5
14 17.08 З 1 н/о н/о +21.5 +12.8 58 +24 +24 комфорт 1012.8 933.3
15 17.08 СВ 1 н/о н/о +21.9 +12.3 54 +24 +24 комфорт 1012.4 933.0
16 17.08 штиль 0 н/о н/о +20.6 +12.1 58 +22 +22 комфорт 1012.9 933.1 0.0
17 17.08 штиль 0 н/о н/о +19.5 +14.7 74 +21 +21 комфорт 1013.0 933.0 0.0
18 17.08 Ю 1 н/о н/о +18.7 +15.2 80 +21 +21 комфорт 1013.2 933.0 +13.3 +22.4 0.0
19 17.08 ЮЗ 1 н/о н/о +17.7 +14.7 83 +19 +19 1013.5 933.0
20 17.08 штиль 0 н/о н/о +17.5 +14.5 83 +17 +17 1013.8 933.2
21 17.08 Ю 1 н/о н/о +17.5 +14.0 80 +19 +19 1013.8 933.2
22 17.08 штиль 0 н/о н/о +17.0 +14.3 84 +17 +17 1013.3 932.6
23 17.08 штиль 0 н/о н/о +16.9 +14.0 83 +17 +17 1013.0 932.3
00 18.08 СВ 1 н/о н/о +16.6 +12.3 76 +17 +17 1012.9 932.1
01 18.08 штиль 0 н/о н/о +16.3 +12.7 79 +16 +16 1012.7 931.8
02 18.08 В 1 н/о н/о +16.1 +11.5 74 +17 +17 1012.8 931.8
03 18.08 ЮЗ 1 н/о н/о +15.5 +11.1 75 +16 +16 1012.6 931.5
04 18.08 Ю 1 н/о н/о +15.0 +11.0 77 +16 +16 1012.8 931.5
05 18.08 штиль 0 н/о н/о +14.6 +11.0 79 +14 +14 1013.2 931.8
06 18.08 штиль 0 н/о н/о +16.2 +12.1 77 +16 +16 1013.0 932.0 +14.3 +18.8
07 18.08 С 1 н/о н/о +19.3 +14.5 74 +22 +22 комфорт 1011.8 931.8
08 18.08 штиль 0 н/о н/о +21.8 +15.9 69 +25 +25 комфорт 1010.6 931.4
09 18.08 штиль 0 н/о н/о +23.6 +16.5 64 +27 +27 жарко 1009.7 931.1
10 18.08 СВ 1 н/о н/о +26.0 +17.0 58 +30 +30 душно 1009.0 931.0
11 18.08 З 1 н/о н/о +26.4 +14.5 48 +29 +29 жарко 1008.6 930.7
12 18.08 З 1 н/о н/о +28.5 +11.8 36 +30 +30 жарко 1007.8 930.4
13 18.08 Ю 1 н/о н/о +29.4 +9.9 30 +29 +29 жарко 1007.3 930.1
14 18.08 С 1 н/о н/о +30.0 +13.8 37 +32 +32 жарко 1007.0 930.1
15 18.08 С 1 н/о н/о +30.6 +10.5 29 +31 +31 жарко 1006.7 929.8
16 18.08 ЮВ 1 н/о н/о +30.1 +11.1 31 +30 +30 жарко 1006.2 929.3
17 18.08 ЮЗ 4 н/о н/о +26.7 +15.0 49 +29 +29 жарко 1007.7 929.9
18 18.08 ЮЗ 2 н/о н/о +25.6 +14.7 51 +28 +28 жарко 1008.2 930.1 +16.1 +30.8
19 18.08 Ю 2 н/о н/о +24.2 +14.4 54 +27 +27 жарко 1009.0 930.5
20 18.08 ЮЗ 2 н/о н/о +22.7 +14.8 61 +26 +26 жарко 1010.1 931.1
21 18.08 Ю 1 н/о н/о +22.0 +15.3 66 +26 +26 душно 1010.3 931.2
22 18.08 штиль 0 н/о н/о +21.1 +15.0 68 +24 +24 комфорт 1011.5 932.0
23 18.08 З 4
{14}
н/о н/о +18.4 +14.3 77 +19 +19 1014.9 934.4 0.0
00 19.08 З 5
{14}
н/о н/о +17.5 +15.5 88 +17 +17 1017.6 936.7 0.0
01 19.08 Ю 3 н/о н/о +15.6 +14.2 91 +15 +15 1018.2 936.7 14
02 19.08 штиль 0 н/о осадки н/о +15.4 +14.2 93 +15 +15 1017.7 936.2 4
03 19.08 штиль 0 н/о осадки н/о +15.8 +14.2 90 +16 +16 1016.9 935.6 19
04 19.08 ЮЗ 1 н/о осадки н/о +15.5 +14.3 93 +16 +16 1016.5 935.1 1
05 19.08 ЮЗ 2 н/о осадки н/о +15.5 +14.6 94 +15 +15 1017.4 936.0 0.6
06 19.08 СВ 1
{14}
н/о осадки {ливн. осадки} н/о +15.8 +14.9 94 +16 +16 1018.1 936.7 +15.3 +26.2 24
07 19.08 В 1 н/о в посл. час осадки н/о +16.3 +14.9 91 +17 +17 1017.0 935.8 0.3
08 19.08 штиль 0 н/о н/о +16.9 +15.6 92 +17 +17 1017.3 936.3
09 19.08 З 1 н/о {осадки} н/о +18.0 +15.7 86 +19 +19 1017.2 936.5 0.3
10 19.08 З 2 н/о н/о +19.5 +14.1 71 +22 +22 комфорт 1016.8 936.5
11 19.08 З 2 н/о н/о +20.1 +14.3 69 +23 +23 комфорт 1016.7 936.5
12 19.08 ЮЗ 1 н/о {осадки} н/о +20.3 +14.9 71 +24 +24 комфорт 1016.8 936.7 0.3
13 19.08 З 2 н/о н/о +20.9 +14.5 67 +25 +25 комфорт 1016.6 936.7
14 19.08 СЗ 1 н/о н/о +21.4 +15.1 67 +25 +25 комфорт 1016.3 936.5
15 19.08 З 2 н/о н/о +21.5 +14.8 66 +25 +25 комфорт 1016.6 936.8 0.0
16 19.08 ЮЗ 2 н/о н/о +20.3 +14.6 70 +23 +23 комфорт 1017.0 936.9
17 19.08 Ю 2 н/о н/о +19.8 +14.5 71 +22 +22 комфорт 1017.1 936.8 0.0
18 19.08 ЮЗ 3 н/о н/о +18.9 +15.1 79 +20 +20 1017.8 937.3 +15.7 +21.9 0.3
19 19.08 Ю 2 н/о н/о +18.0 +15.6 86 +19 +19 1018.1 937.3
20 19.08 З 1 н/о н/о +17.6 +16.0 90 +19 +19 1019.0 938.1
21 19.08 Ю 1 н/о осадки н/о +17.1 +15.9 93 +18 +18 1019.2 938.1 3
22 19.08 З 2 н/о н/о +16.3 +15.4 94 +16 +16 1020.3 938.9 10
23 19.08 ЮЗ 2 н/о осадки н/о +16.1 +15.3 95 +16 +16 1020.5 939.0 1
00 20.08 СЗ 1 н/о ливневой дождь н/о +16.1 +15.6 97 +17 +17 1020.3 938.8 14
01 20.08 ЮЗ 3 н/о н/о +15.8 +15.3 97 +15 +15 1020.0 938.5
02 20.08 Ю 1 н/о в посл. час осадки н/о +15.9 +15.3 96 +17 +17 1019.5 938.0 0.0
03 20.08 ЮЗ 2 н/о {осадки} н/о +15.7 +15.3 97 +16 +16 1019.7 938.2 0.0
04 20.08 ЮЗ 3 н/о ливневой дождь {осадки} н/о +15.2 +14.7 97 +14 +14 1020.2 938.5 0.3
05 20.08 ЮЗ 2 н/о осадки н/о +15.2 +14.3 94 +15 +15 1020.2 938.5 0.1
06 20.08 ЮЗ 1 н/о в посл. час осадки {ливн. осадки} н/о +15.3 +14.5 95 +16 +16 1020.1 938.4 +15.1 +18.9 16
07 20.08 З 1 н/о осадки н/о +15.3 +14.6 96 +16 +16 1020.3 938.6 0.5
08 20.08 С 1 н/о осадки н/о +15.5 +14.9 96 +16 +16 1020.0 938.4 0.8
09 20.08 СЗ 1 н/о осадки н/о +15.9 +14.9 94 +17 +17 1020.6 939.0 2
10 20.08 ЮЗ 3 н/о осадки н/о +15.5 +14.9 96 +15 +15 1020.7 939.0 0.2
11 20.08 ЮЗ 2 н/о осадки н/о +16.0 +15.3 96 +16 +16 1020.3 938.8 1
12 20.08 З 2 н/о осадки н/о +15.6 +15.0 96 +15 +15 1020.5 938.9 4
13 20.08 ЮЗ 2 н/о осадки н/о +14.2 +12.6 90 +14 +14 1022.3 940.1 3
14 20.08 В 1 н/о осадки н/о +13.9 +11.9 88 +14 +14 1022.6 940.2 2
15 20.08 ЮЗ 2 н/о ливневой дождь {осадки} н/о +13.7 +12.7 94 +13 +13 1023.7 941.2 6
16 20.08 Ю 1 н/о осадки н/о +13.6 +12.6 94 +14 +14 1024.0 941.5 5
17 20.08 СВ 1 н/о осадки н/о +13.0 +12.1 94 +13 +13 1024.6 941.8 4
18 20.08 З 1 н/о осадки {ливн. осадки} н/о +12.2 +11.5 95 +12 +12 1026.2 943.1 +12.2 +16.1 23
19 20.08 ЮЗ 1 н/о н/о +12.2 +11.4 95 +12 +12 1027.2 944.0 6
20 20.08 ЮЗ 1 н/о осадки н/о +12.1 +11.0 93 +12 +12 1028.0 944.7 4
21 20.08 штиль 0 н/о осадки н/о +11.7 +10.6 93 +11 +11 1028.6 945.1 14
22 20.08 С 1 н/о осадки н/о +11.5 +10.5 94 +11 +11 1028.3 944.8 2
23 20.08 СВ 1 н/о осадки н/о +11.4 +10.3 93 +11 +11 1028.1 944.6 3
00 21.08 ЮВ 1 н/о осадки н/о +11.2 +10.2 94 +11 +11 1028.0 944.4 19
01 21.08 СВ 1 н/о в посл. час осадки н/о +11.0 +10.4 96 +11 +11 1027.9 944.3 0.1
02 21.08 штиль 0 н/о н/о +11.1 +10.6 97 +10 +10 1028.2 944.6
03 21.08 штиль 0 н/о {осадки} н/о +11.1 +10.5 96 +10 +10 1028.2 944.6 0.1
04 21.08 СВ 1 н/о н/о +11.0 +10.5 97 +11 +11 1027.9 944.3
05 21.08 С 1 н/о осадки н/о +11.1 +10.8 98 +11 +11 1028.2 944.6 0.1
06 21.08 штиль 0 н/о {ливн. осадки} н/о +11.3 +10.7 96 +11 +11 1027.9 944.4 +10.9 +12.4 19
07 21.08 С 1 н/о н/о +13.2 +10.9 86 +13 +13 1027.6 944.6
08 21.08 С 1 н/о н/о +14.1 +11.3 83 +14 +14 1027.0 944.3
09 21.08 С 1 н/о н/о +15.8 +11.3 75 +17 +17 1026.1 944.0
10 21.08 СВ 1 н/о н/о +17.0 +12.0 72 +18 +18 1025.2 943.5
11 21.08 СВ 3 н/о н/о +17.6 +11.0 65 +18 +18 1024.9 943.3
12 21.08 В 1 н/о н/о +17.3 +11.7 70 +18 +18 1024.7 943.1
13 21.08 СВ 2 н/о н/о +17.7 +11.8 68 +18 +18 1024.5 943.0
14 21.08 СВ 2 н/о н/о +18.0 +11.9 68 +19 +19 1024.1 942.7
15 21.08 СВ 3 н/о н/о +17.2 +11.7 70 +17 +17 1024.2 942.6
16 21.08 СВ 2 н/о н/о +17.3 +12.0 71 +18 +18 1024.1 942.5
17 21.08 СВ 2 н/о н/о +16.0 +11.4 74 +16 +16 1024.2 942.3
18 21.08 СВ 1 н/о н/о +15.5 +11.3 76 +16 +16 1024.5 942.4 +11.2 +18.7
19 21.08 СВ 2 н/о н/о +15.1 +11.3 78 +15 +15 1024.9 942.7
20 21.08 СВ 2 н/о н/о +14.7 +11.2 80 +14 +14 1024.7 942.4
21 21.08 В 1 н/о н/о +13.6 +10.8 83 +14 +14 1024.7 942.1
22 21.08 СВ 1 н/о н/о +12.8 +11.0 89 +13 +13 1024.9 942.0
23 21.08 штиль 0 н/о н/о +12.6 +11.0 90 +12 +12 1024.7 941.8
00 22.08 штиль 0 н/о н/о +12.0 +11.0 94 +11 +11 1024.5 941.4
01 22.08 штиль 0 н/о н/о +11.6 +10.6 94 +11 +11 1024.3 941.1
02 22.08 В 1 н/о н/о +11.8 +11.0 95 +12 +12 1024.1 941.0
03 22.08 штиль 0 н/о н/о +10.9 +10.3 96 +10 +10 1024.3 940.9
04 22.08 штиль 0 н/о н/о +10.7 +10.4 98 +10 +10 1023.9 940.5
05 22.08 В 1 н/о н/о +11.2 +11.1 99 +11 +11 1024.3 941.0
06 22.08 штиль 0 н/о н/о +11.0 +10.7 98 +10 +10 1024.7 941.3 +10.2 +15.6
07 22.08 штиль 0 н/о н/о +11.8 +11.5 98 +11 +11 1024.5 941.4
08 22.08 штиль 0 н/о н/о +13.9 +12.2 89 +13 +13 1024.1 941.6
09 22.08 С 1 н/о н/о +17.2 +13.1 77 +18 +18 1023.1 941.6
10 22.08 ЮЗ 3 н/о н/о +16.9 +13.4 80 +17 +17 1023.4 941.8

 

Местоположение метеостанции Альбершвенде (Австрия): широта 47.46 долгота 9.85 высота над уровнем моря 715 м.

В архиве по умолчанию представлена погода в Альбершвенде за последнюю неделю. Архивные данные за месяц целиком и за предыдущие месяцы, начиная с января 2011 года, Вы можете получить, выбрав интересующий диапазон дат из раскрывающегося списка и нажав кнопку "Ввод!".


*Определитесь, кто Вы:
робот инопланетянин человек

Внимание! Время в таблицах - всемирное. Для получения местного времени необходимо прибавить поправку, которая равна 1 ч.

Смотрите также архив погоды в соседних городах и на ближайших метеорологических станциях:

Погода в Брегенце (Австрия) (9 км)
Погода в Дорнбирне (Австрия) (10 км)
Погода в Санкт-Галлен-Альтенрайне (Швейцария) (22 км)
Погода в Фельдкирхе (Австрия) (27 км)
Погода в Оберстдорфе (Германия) (33 км)
Погода в Санкт-Галлене (Швейцария) (34 км)
Погода в Варте (Австрия) (34 км)
Погода в Херлацхофене (Германия) (40 км)
Погода на Зентисе (Швейцария) (44 км)
Погода в Вадуце (Лихтенштейн) (44 км)

Пояснения к столбцам:

Ветер - указаны скорость ветра в м/с - средняя за 10 мин, порывы в срок и между сроками (в фигурных скобках) и направление, откуда дует ветер: С - северный, СВ - северо-восточный, В - восточный, ЮВ - юго-восточный, Ю - южный, ЮЗ - юго-западный, З - западный, СЗ - северо-западный.
Видимость - горизонтальная дальность видимости в метрах или километрах. При видимости от 1 до 10 км при отсутствии осадков обычно наблюдается дымка, при ухудшении видимости до 1 км и менее - туман. В сухую погоду видимость может ухудшаться дымом, пылью или мглою.
Явления - указаны атмосферные явления, наблюдавшиеся в срок или в последний час перед сроком; фигурными скобками обозначены явления, наблюдавшиеся между сроками (за 1-3 часа до срока); квадратными скобками обозначены град или гололедные отложения с указанием их диаметра в мм.
Облачность - указаны через наклонную черту общая и нижняя облачность в баллах и высота нижней границы облаков в метрах; квадратными скобками обозначены формы облаков: Ci - перистые, Cs - перисто-слоистые, Cc - перисто-кучевые, Ac - высококучевые, As - высокослоистые, Sc - слоисто-кучевые, Ns - слоисто-дождевые, Cu - кучевые, Cb - кучево-дождевые. Подробнее классификацию облаков см. в Атласе облаков (PDF).
T - Температура воздуха - температура, измеренная на высоте 2 м над землей.
Td - Температура точки росы - температура, при понижении до которой содержащийся в воздухе водяной пар достигнет насыщения.
f - Относительная влажность воздуха - влажноcть воздуха, измеренная на высоте 2 м над землей.
Te - Эффективная температура - температура, которую ощущает одетый по сезону человек в тени. Характеристика душности погоды. При расчете учитывается влияние влажности воздуха и скорости ветра на теплоощущения человека.
Tes - Эффективная температура на солнце - температура, которую ощущает человек, с поправкой на солнечный нагрев. Характеристика знойности погоды. Зависит от высоты солнца над горизонтом, облачности и скорости ветра. Ночью, в пасмурную погоду, а также при ветре 12 м/с и более поправка равна нулю.
P - Атмосферное давление - приведенное к уровню моря атмосферное давление.
Po - Атмосферное давление - измеренное на уровне метеостанции атмосферное давление.
Tmin - Минимальная температура - минимум температуры воздуха на высоте 2 м над землей.
Tmax - Максимальная температура - максимум температуры воздуха на высоте 2 м над землей.
R - Количество осадков - Количество выпавших осадков за период времени, мм. При наведении курсора мыши на число - период времени, за который выпало указанное количество осадков.
R24 - Количество осадков - Количество выпавших осадков за 24 часа, мм.
S - Снежный покров - Высота снежного покрова, см. При наведении курсора мыши на число - состояние снежного покрова и степень покрытия местности в баллах.